RH
45 44 44 44 41 40 41 44 44 45 46 45 43 42 42 42 41 38 36 35 33 31 30 30 34 39 37 34 34 29 23 25 34 36 37 34 34 33 32 29 24 21 19
45 42 44 50 43 42 43 45 44 42 41 42 43 42 42 40 39 39 37 36 37 39 40 39 37 35 34 34 34 35 30 25 25 36 34 32 28 29 30 26 21 19 18
35 35 42 48 50 45 43 43 42 40 40 40 40 41 41 40 40 41 39 36 35 36 37 41 37 39 41 36 32 31 30 28 25 22 32 33 30 30 29 26 24 19 17
32 33 39 41 40 38 37 36 37 36 36 37 38 39 39 39 41 42 40 38 36 35 35 37 39 40 42 44 41 38 35 33 30 27 24 24 26 26 24 25 29 25 21
32 32 32 34 34 32 33 33 32 32 32 33 34 35 37 37 38 41 40 41 41 41 39 39 40 40 40 40 42 42 38 38 37 34 31 28 27 26 29 34 36 38 34
30 30 30 32 32 30 30 29 27 26 26 27 28 29 31 33 36 38 40 42 43 44 44 43 43 43 41 41 40 42 41 39 34 36 37 36 34 33 32 54 47 37 35
30 29 28 28 29 28 27 25 21 18 18 19 19 22 25 26 27 32 34 36 37 38 40 43 47 49 49 47 49 46 44 46 43 35 33 35 38 39 37 44 62 45 32
30 28 27 26 25 22 18 16 15 15 16 17 17 18 18 19 19 20 20 21 21 26 31 34 36 38 38 40 43 49 51 50 51 52 47 38 35 37 38 40 51 64 44
28 24 23 20 17 14 13 12 11 11 12 12 12 12 11 10 10 9 10 11 12 14 17 22 26 26 30 32 35 38 39 41 42 44 46 50 47 42 39 39 41 56 61
25 22 17 13 11 11 11 11 11 11 11 11 9 9 8 7 7 6 6 6 6 8 10 11 15 19 22 27 31 33 34 37 38 41 42 41 42 45 43 43 43 43 46
21 15 13 11 11 11 11 12 11 11 10 9 9 8 8 7 7 8 9 9 9 9 9 10 11 13 14 19 25 29 31 33 34 38 40 45 45 42 41 42 42 44 46
16 13 12 12 11 12 12 12 11 11 10 8 8 8 8 8 9 9 9 10 10 11 12 12 13 13 14 15 17 21 26 29 31 32 34 38 42 48 52 56 55 57 55
15 13 12 12 12 12 12 12 11 10 8 7 8 8 8 9 9 10 10 11 12 12 12 13 13 14 14 15 16 17 19 23 28 31 30 32 32 37 44 55 64 66 67
14 13 12 12 12 12 13 12 11 9 8 7 8 9 9 10 10 11 11 12 12 13 13 13 13 13 13 13 15 17 18 20 22 24 29 35 41 42 41 42 47 59 66
14 13 12 12 13 14 13 12 11 9 8 8 8 9 9 10 10 11 12 13 13 13 14 13 14 13 14 14 14 14 16 17 19 20 23 27 36 42 47 47 47 51 57
14 13 12 14 14 14 13 12 10 9 8 8 9 9 10 10 11 12 13 14 14 14 14 13 13 14 14 13 13 14 14 14 17 18 19 21 23 28 36 42 45 48 53
14 13 14 14 14 14 13 11 10 9 9 9 10 11 12 13 14 15 15 15 14 13 12 12 11 12 12 13 14 15 16 17 18 19 20 21 21 22 23 25 33 41 45
14 15 15 15 16 15 13 10 9 9 9 10 12 13 15 16 16 16 15 14 13 12 11 11 12 12 12 14 15 18 21 21 21 21 22 22 22 22 23 23 23 24 30
16 16 16 17 16 14 12 10 9 10 11 14 16 18 18 17 16 15 13 12 10 10 11 11 13 13 13 14 16 19 20 21 23 25 26 26 26 26 27 26 26 26 26
17 17 18 17 15 13 12 11 12 13 16 20 21 20 18 16 13 11 9 8 7 6 6 7 8 11 13 16 19 19 20 23 26 29 32 32 33 33 34 35 35 35 34
17 18 18 15 14 14 13 14 17 20 21 21 20 19 17 15 12 10 9 8 7 7 8 8 8 10 12 13 12 17 22 25 28 31 34 36 37 38 40 41 41 41 40
18 18 16 15 15 16 18 19 18 18 18 20 21 19 16 14 14 12 10 9 10 11 11 12 12 11 12 14 19 19 21 25 29 29 31 32 34 34 35 40 41 42 43
16 16 16 17 18 20 20 17 17 18 20 20 19 17 17 17 14 13 12 13 14 15 14 13 13 14 15 15 20 20 23 25 22 25 29 30 33 33 32 32 33 34 36
15 16 19 21 23 22 18 16 16 17 17 18 19 19 18 16 15 15 15 17 17 16 16 15 14 14 16 18 18 19 24 24 27 24 26 28 29 28 28 28 28 30 31
17 21 23 21 18 15 14 15 16 16 17 16 16 15 16 17 17 16 16 18 17 16 15 14 13 14 14 15 17 19 21 24 27 34 32 31 31 33 34 33 34 33 34
20 21 21 20 17 16 16 15 14 14 14 14 15 15 18 18 18 18 18 18 17 17 16 16 15 14 13 14 16 18 23 26 28 28 29 30 31 29 28 29 27 26 23